CW7104 Weather Reports


time (UTC)temp
F
wind
direction
speed
knots
gust
knots
rain 1hr
in
rain 24hr
in
rain mn
in
humidity
%
barometer
mb
20260507113404 41 9 0.0 0.0 0.00 0.00 0.00 78 1017.5
20260507112904 41 9 0.0 0.0 0.00 0.00 0.00 78 1017.5
20260507111404 40 9 0.0 0.0 0.00 0.00 0.00 77 1017.5
20260507110903 40 9 0.0 0.0 0.00 0.00 0.00 77 1017.4
20260507105903 41 10 0.0 0.0 0.00 0.00 0.00 76 1017.5
20260507105404 41 9 0.0 0.0 0.00 0.00 0.00 76 1017.5
20260507104903 41 9 0.0 0.0 0.00 0.00 0.00 76 1017.5
20260507104404 41 9 0.0 0.0 0.00 0.00 0.00 76 1017.5
20260507103904 41 9 0.0 0.0 0.00 0.00 0.00 75 1017.5
20260507103403 41 9 0.0 0.0 0.00 0.00 0.00 75 1017.6
20260507102904 42 10 0.0 0.0 0.00 0.00 0.00 75 1017.6
20260507101904 42 9 0.0 0.0 0.00 0.00 0.00 74 1017.5
20260507101404 43 9 0.0 0.0 0.00 0.00 0.00 73 1017.6
20260507100903 43 10 0.0 0.0 0.00 0.00 0.00 74 1017.6
20260507095903 43 10 0.0 0.0 0.00 0.00 0.00 73 1017.6
20260507095404 44 10 0.0 0.0 0.00 0.00 0.00 74 1017.6
20260507094904 44 10 0.0 0.0 0.00 0.00 0.00 74 1017.4
20260507093904 44 10 0.0 0.0 0.00 0.00 0.00 74 1017.4
20260507093404 44 10 0.0 0.0 0.00 0.00 0.00 74 1017.4
20260507092903 44 11 0.0 0.0 0.00 0.00 0.00 75 1017.3
20260507092404 44 9 0.0 0.0 0.00 0.00 0.00 75 1017.2
20260507091904 44 6 0.0 0.0 0.00 0.00 0.00 75 1017.2
20260507090904 44 8 0.0 0.0 0.00 0.00 0.00 74 1017.1
20260507085905 45 12 0.0 0.0 0.00 0.00 0.00 74 1017.1
20260507085406 45 12 0.0 0.0 0.00 0.00 0.00 74 1017.1
20260507084905 46 12 0.0 0.0 0.00 0.00 0.00 74 1017.0
20260507084405 46 13 0.0 0.0 0.00 0.00 0.00 74 1017.0
20260507083905 46 12 0.0 0.0 0.00 0.00 0.00 74 1016.9
20260507083405 46 12 0.0 0.0 0.00 0.00 0.00 74 1016.9
20260507082905 46 12 0.0 0.0 0.00 0.00 0.00 74 1016.8
20260507082405 46 12 0.0 0.0 0.00 0.00 0.00 74 1016.8
20260507080405 46 12 0.0 0.0 0.00 0.00 0.00 74 1016.7
20260507075905 46 12 0.0 0.0 0.00 0.00 0.00 74 1016.6
20260507075406 46 12 0.0 0.0 0.00 0.00 0.00 74 1016.6
20260507073405 47 12 0.0 0.0 0.00 0.00 0.00 75 1016.4
20260507072405 47 12 0.0 0.0 0.00 0.00 0.00 75 1016.4
20260507071905 47 12 0.0 0.0 0.00 0.00 0.00 76 1016.3
20260507071405 47 12 0.0 0.0 0.00 0.00 0.00 76 1016.3
20260507070905 47 12 0.0 0.0 0.00 0.00 0.00 76 1016.4
20260507070405 47 12 0.0 0.0 0.00 0.00 0.00 76 1016.4
20260507065906 47 12 0.0 0.0 0.00 0.00 0.00 76 1016.4
20260507065405 47 12 0.0 0.0 0.00 0.00 0.00 76 1016.4
20260507064905 47 12 0.0 0.0 0.00 0.00 0.00 76 1016.5
20260507064405 47 12 0.0 0.0 0.00 0.00 0.00 76 1016.4
20260507063905 47 12 0.0 0.0 0.00 0.00 0.00 76 1016.5
20260507063405 47 12 0.0 0.0 0.00 0.00 0.00 76 1016.5
20260507062905 47 12 0.0 0.0 0.00 0.00 0.00 76 1016.5
20260507062406 47 12 0.0 0.0 0.00 0.00 0.00 76 1016.6
20260507061905 48 12 0.0 0.0 0.00 0.00 0.00 76 1016.7
20260507061405 48 12 0.0 0.0 0.00 0.00 0.00 76 1016.6
20260507060905 48 12 0.0 0.0 0.00 0.00 0.00 75 1016.6
20260507060404 48 12 0.0 0.0 0.00 0.00 0.00 75 1016.7
20260507055404 49 13 0.0 0.0 0.00 0.00 0.00 75 1016.6
20260507054905 49 12 0.0 0.0 0.00 0.00 0.00 75 1016.6
20260507054404 49 12 0.0 0.0 0.00 0.00 0.00 75 1016.5
20260507053405 49 12 0.0 0.0 0.00 0.00 0.00 76 1016.7
20260507052905 49 13 0.0 0.0 0.00 0.00 0.00 76 1016.7
20260507052405 49 12 0.0 0.0 0.00 0.00 0.00 77 1016.8
20260507051905 49 12 0.0 0.0 0.00 0.00 0.00 77 1016.9
20260507051405 49 7 0.0 0.0 0.00 0.00 0.00 77 1016.9
20260507050905 49 12 0.0 0.0 0.00 0.00 0.00 77 1016.8
20260507050405 49 13 0.0 0.0 0.00 0.00 0.00 77 1016.8
20260507045905 49 12 0.0 0.0 0.00 0.00 0.00 77 1016.8
20260507045405 49 12 0.0 0.0 0.00 0.00 0.00 77 1016.6
20260507044905 49 11 0.0 0.0 0.00 0.00 0.00 77 1016.5
20260507044405 49 13 0.0 0.0 0.00 0.00 0.00 78 1016.4
20260507043905 49 13 0.0 0.0 0.00 0.00 0.00 78 1016.5
20260507042905 49 5 0.0 0.0 0.00 0.00 0.00 78 1016.7
20260507042405 49 8 0.0 0.0 0.00 0.00 0.00 78 1016.6
20260507041905 49 11 0.0 0.0 0.00 0.00 0.00 78 1016.5
20260507041405 49 14 0.0 0.0 0.00 0.00 0.00 78 1016.3
20260507040905 49 12 0.0 0.0 0.00 0.00 0.00 78 1016.3
20260507040405 50 9 0.0 0.0 0.00 0.00 0.00 77 1016.4
20260507035905 49 9 0.0 0.0 0.00 0.00 0.00 77 1016.4
20260507035405 49 13 0.0 0.0 0.00 0.00 0.00 77 1016.5
20260507034404 49 8 0.0 0.0 0.00 0.00 0.00 76 1016.6
20260507033905 49 15 0.0 0.0 0.00 0.00 0.00 76 1016.5
20260507033405 49 15 0.0 0.0 0.00 0.00 0.00 75 1016.6
20260507032906 49 15 0.0 0.0 0.00 0.00 0.00 74 1016.6
20260507032405 49 15 0.0 0.0 0.00 0.00 0.00 74 1016.6
20260507031905 49 15 0.0 0.0 0.00 0.00 0.00 74 1016.6
20260507030905 50 15 0.0 0.0 0.00 0.00 0.00 74 1016.7
20260507030405 50 15 0.0 0.0 0.00 0.00 0.00 74 1016.8
20260507025905 50 15 0.0 0.0 0.00 0.00 0.00 74 1016.7
20260507024905 50 15 0.0 0.0 0.00 0.00 0.00 72 1016.8
20260507024405 51 15 0.0 0.0 0.00 0.00 0.00 72 1016.7
20260507023905 51 14 0.0 0.0 0.00 0.00 0.00 72 1016.5
20260507023405 51 15 0.0 0.0 0.00 0.00 0.00 72 1016.5
20260507022904 51 15 0.0 0.0 0.00 0.00 0.00 72 1016.6
20260507021905 51 15 0.0 0.0 0.00 0.00 0.00 71 1016.6
20260507021405 51 15 0.0 0.0 0.00 0.00 0.00 70 1016.5
20260507020905 52 15 0.0 0.0 0.00 0.00 0.00 70 1016.4
20260507020405 52 15 0.0 0.0 0.00 0.00 0.00 70 1016.4
20260507015405 52 15 0.0 0.0 0.00 0.00 0.00 69 1016.3
20260507014904 53 15 0.0 0.0 0.00 0.00 0.00 68 1016.2
20260507014405 53 15 0.0 0.0 0.00 0.00 0.00 68 1016.1
20260507013904 53 15 0.0 0.0 0.00 0.00 0.00 67 1016.2
20260507013405 54 15 0.0 0.0 0.00 0.00 0.00 66 1016.0
20260507011904 55 15 0.0 0.0 0.00 0.00 0.00 65 1015.4
20260507011405 55 15 0.0 0.0 0.00 0.00 0.00 64 1015.5
20260507005905 57 15 0.0 0.0 0.00 0.00 0.00 63 1015.4
20260507005405 57 15 0.0 0.0 0.00 0.00 0.00 62 1015.3
20260507004904 57 13 0.0 0.0 0.00 0.00 0.00 61 1015.2
20260507003904 58 10 0.0 0.0 0.00 0.00 0.00 61 1015.3
20260507003405 58 13 0.0 0.0 0.00 0.00 0.00 61 1015.4
20260507002905 58 13 0.0 0.0 0.00 0.00 0.00 60 1015.3
20260507002404 58 14 0.0 0.0 0.00 0.00 0.00 59 1015.2
20260507001404 59 14 0.0 0.0 0.00 0.00 0.00 58 1015.2
20260507000905 59 14 0.0 0.0 0.00 0.00 0.00 57 1015.2
20260507000406 59 14 0.0 0.0 0.00 0.00 0.00 56 1015.0
20260506235905 60 14 0.0 0.0 0.00 0.00 0.00 55 1015.1
20260506235404 60 14 0.0 0.0 0.00 0.00 0.00 54 1014.9
20260506233904 61 38 0.0 0.0 0.00 0.00 0.00 53 1014.8
20260506233404 61 27 0.0 0.0 0.00 0.00 0.00 51 1014.9
20260506232905 61 40 0.0 0.0 0.00 0.00 0.00 51 1015.0
20260506232405 61 10 0.0 0.0 0.00 0.00 0.00 52 1015.0
20260506231404 61 329 0.0 0.0 0.00 0.00 0.00 51 1014.9
20260506230404 61 348 0.0 0.0 0.00 0.00 0.00 51 1014.8
20260506225904 61 305 0.0 0.0 0.00 0.00 0.00 52 1015.0
20260506225405 60 315 0.0 5.2 0.00 0.00 0.00 52 1015.0
20260506224405 60 44 0.9 6.1 0.00 0.00 0.00 51 1015.1
20260506223905 60 350 0.9 4.3 0.00 0.00 0.00 49 1015.0
20260506223404 61 348 0.0 4.3 0.00 0.00 0.00 53 1015.0
20260506222904 61 6 0.0 0.9 0.00 0.00 0.00 57 1015.2
20260506222405 60 341 0.0 2.6 0.00 0.00 0.00 57 1015.2
20260506221905 60 333 0.0 4.3 0.00 0.00 0.00 55 1015.1
20260506221405 60 343 0.9 5.2 0.00 0.00 0.00 54 1015.2
20260506220904 60 350 0.0 0.0 0.00 0.00 0.00 53 1015.2
20260506220405 60 0 0.0 0.0 0.00 0.00 0.00 53 1015.1
20260506215904 60 355 0.0 0.9 0.00 0.00 0.00 53 1015.2
20260506215405 61 356 0.9 5.2 0.00 0.00 0.00 52 1015.2
20260506214904 61 326 1.7 7.0 0.00 0.00 0.00 50 1015.1
20260506214404 61 23 0.9 5.2 0.00 0.00 0.00 51 1015.1
20260506213904 61 346 0.9 6.1 0.00 0.00 0.00 50 1015.0
20260506213405 62 354 0.9 10.4 0.00 0.00 0.00 50 1014.9
20260506212904 62 355 0.0 10.4 0.00 0.00 0.00 51 1014.8
20260506212404 61 13 0.9 4.3 0.00 0.00 0.00 52 1014.6
20260506211905 61 297 0.9 7.0 0.00 0.00 0.00 50 1014.8
20260506210905 62 337 0.9 4.3 0.00 0.00 0.00 48 1015.2
20260506205904 62 26 1.7 5.2 0.00 0.00 0.00 50 1015.0
20260506204905 61 283 0.9 8.7 0.00 0.00 0.00 51 1015.1
20260506204404 61 337 1.7 5.2 0.00 0.00 0.00 52 1015.1
20260506203904 62 0 2.6 7.0 0.00 0.00 0.00 51 1015.4
20260506203405 63 340 0.0 1.7 0.00 0.00 0.00 51 1015.7
20260506202404 63 294 1.7 5.2 0.00 0.00 0.00 51 1015.7
20260506201904 63 330 1.7 7.0 0.00 0.00 0.00 50 1015.7
20260506201405 63 298 0.9 4.3 0.00 0.00 0.00 54 1015.6
20260506200904 63 63 0.9 4.3 0.00 0.00 0.00 54 1015.4
20260506200404 62 355 0.0 0.9 0.00 0.00 0.00 53 1015.8
20260506195905 62 0 0.9 4.3 0.00 0.00 0.00 53 1015.6
20260506195404 61 30 0.0 2.6 0.00 0.00 0.00 50 1015.5
20260506194904 61 9 0.9 5.2 0.00 0.00 0.00 54 1015.5
20260506194404 61 294 2.6 7.0 0.00 0.00 0.00 53 1015.5
20260506193904 61 332 0.0 0.0 0.00 0.00 0.00 52 1015.6
20260506193404 60 342 0.0 0.9 0.00 0.00 0.00 54 1015.7
20260506192905 60 300 0.9 4.3 0.00 0.00 0.00 51 1015.7
20260506192404 60 5 0.0 4.3 0.00 0.00 0.00 53 1015.7
20260506191904 60 336 0.0 5.2 0.00 0.00 0.00 50 1015.7
20260506191404 60 322 0.9 5.2 0.00 0.00 0.00 51 1015.6
20260506190904 61 322 0.9 6.1 0.00 0.00 0.00 50 1015.6
20260506190405 61 0 0.9 5.2 0.00 0.00 0.00 49 1015.4
20260506185904 61 21 2.6 7.0 0.00 0.00 0.00 53 1015.4
20260506185404 60 6 1.7 7.0 0.00 0.00 0.00 54 1015.5
20260506184904 60 3 3.5 7.0 0.00 0.00 0.00 51 1015.6
20260506183404 60 356 0.0 6.1 0.00 0.00 0.00 55 1015.6
20260506182905 60 320 1.7 5.2 0.00 0.00 0.00 52 1015.5
20260506182404 61 324 0.9 6.1 0.00 0.00 0.00 51 1015.6
20260506181904 61 20 4.3 7.0 0.00 0.00 0.00 50 1015.7
20260506181404 60 0 0.0 5.2 0.00 0.00 0.00 51 1015.8
20260506180904 60 6 4.3 7.8 0.00 0.00 0.00 50 1015.8
20260506180404 60 356 0.0 6.1 0.00 0.00 0.00 52 1015.7
20260506175904 60 305 0.0 0.9 0.00 0.00 0.00 50 1015.6
20260506175404 60 5 0.0 0.0 0.00 0.00 0.00 55 1015.6
20260506174904 60 4 0.0 0.0 0.00 0.00 0.00 56 1015.6
20260506174404 59 353 0.0 0.0 0.00 0.00 0.00 60 1015.6
20260506173904 58 8 0.0 0.0 0.00 0.00 0.00 60 1015.5
20260506173404 58 332 0.0 0.0 0.00 0.00 0.00 59 1015.6
20260506172904 58 347 0.0 0.0 0.00 0.00 0.00 57 1015.5
20260506172404 58 29 0.0 0.0 0.00 0.00 0.00 62 1015.5
20260506171904 57 303 0.0 0.0 0.00 0.00 0.00 59 1015.8
20260506170904 57 32 0.0 0.0 0.00 0.00 0.00 61 1015.9
20260506170404 56 24 0.0 0.0 0.00 0.00 0.00 63 1015.8
20260506165904 56 7 0.0 0.0 0.00 0.00 0.00 60 1015.9
20260506165404 56 350 0.0 0.0 0.00 0.00 0.00 64 1016.1
20260506164405 55 0 0.0 0.0 0.00 0.00 0.00 65 1016.0
20260506163904 55 333 0.0 0.0 0.00 0.00 0.00 64 1015.9
20260506163404 55 21 0.0 0.0 0.00 0.00 0.00 63 1015.9
20260506162904 55 56 0.0 0.0 0.00 0.00 0.00 66 1015.7
20260506162404 55 24 0.0 0.0 0.00 0.00 0.00 66 1015.7
20260506161904 55 346 0.0 0.0 0.00 0.00 0.00 66 1016.0
20260506160404 54 345 0.0 0.0 0.00 0.00 0.00 66 1016.0
20260506155904 54 15 0.0 0.0 0.00 0.00 0.00 68 1016.0
20260506155404 54 35 0.0 0.0 0.00 0.00 0.00 67 1016.0
20260506154404 54 37 0.0 0.0 0.00 0.00 0.00 67 1015.7
20260506153904 54 10 0.0 0.0 0.00 0.00 0.00 67 1015.9
20260506153404 54 16 0.0 0.0 0.00 0.00 0.00 67 1015.6
20260506152904 54 25 0.0 0.0 0.00 0.00 0.00 67 1015.6
20260506152404 54 19 0.0 1.7 0.00 0.00 0.00 68 1015.7
20260506151904 54 7 1.7 4.3 0.00 0.00 0.00 68 1015.9
20260506151403 54 8 0.0 0.0 0.00 0.00 0.00 68 1015.8
20260506150904 54 8 0.0 0.0 0.00 0.00 0.00 67 1015.7
20260506150404 54 8 0.0 0.0 0.00 0.00 0.00 66 1015.6
20260506145904 54 7 0.0 0.0 0.00 0.00 0.00 69 1015.6
20260506144903 54 9 0.0 1.7 0.00 0.00 0.00 68 1015.8
20260506143904 54 12 0.0 1.7 0.00 0.00 0.00 70 1015.2
20260506143404 54 0 0.0 5.2 0.00 0.00 0.00 70 1015.2
20260506142903 54 9 2.6 6.1 0.00 0.00 0.00 72 1015.2
20260506142404 53 8 2.6 5.2 0.00 0.00 0.00 73 1014.9
20260506141904 53 22 0.9 4.3 0.00 0.00 0.00 73 1014.9
20260506141404 53 20 1.7 10.4 0.00 0.00 0.00 73 1014.8
20260506140404 52 29 0.0 5.2 0.00 0.00 0.00 76 1014.8
20260506135904 51 5 0.0 4.3 0.00 0.00 0.00 76 1014.5
20260506135404 51 33 2.6 6.1 0.00 0.00 0.00 77 1014.5
20260506134904 51 7 1.7 7.0 0.00 0.00 0.00 78 1014.5
20260506133403 50 11 2.6 6.1 0.00 0.00 0.00 80 1014.0
20260506132404 49 22 0.0 0.0 0.00 0.00 0.00 80 1014.2
20260506131904 49 20 0.0 0.9 0.00 0.00 0.00 81 1014.4
20260506130904 49 26 0.0 1.7 0.00 0.00 0.00 81 1014.4
20260506130404 49 324 0.0 0.0 0.00 0.00 0.00 81 1014.7
20260506125903 49 324 0.0 0.0 0.00 0.00 0.00 81 1014.7
20260506125404 48 354 0.0 2.6 0.00 0.00 0.00 81 1014.3
20260506124404 48 329 0.0 0.0 0.00 0.00 0.00 82 1014.2
20260506123904 48 321 0.0 0.0 0.00 0.00 0.00 82 1014.3
20260506123404 47 321 0.0 0.0 0.00 0.00 0.00 82 1014.1
20260506122904 47 321 0.0 0.0 0.00 0.00 0.00 82 1014.1
20260506122405 47 321 0.0 0.0 0.00 0.00 0.00 82 1014.1
20260506121903 47 322 0.0 0.0 0.00 0.00 0.00 82 1014.1
20260506121404 47 321 0.0 0.0 0.00 0.00 0.00 82 1013.8
20260506120404 47 321 0.0 0.0 0.00 0.00 0.00 82 1013.8
20260506115903 47 321 0.0 0.0 0.00 0.00 0.00 82 1013.9
20260506115404 46 321 0.0 0.0 0.00 0.00 0.00 82 1013.5
20260506114904 46 321 0.0 0.0 0.00 0.00 0.00 82 1013.5
20260506114403 47 321 0.0 0.0 0.00 0.00 0.00 82 1013.5
20260506113904 46 0 0.0 0.0 0.00 0.00 0.00 82 1013.0